Change the Weather History Date:

Friday, May 18, 2012

  Actual Average Record
Temperature  
Mean Temperature 80 °F 81 °F  
Max Temperature 85 °F 85 °F 92 °F (1881)
Min Temperature 74 °F 76 °F 67 °F (1917)
Degree Days  
Heating Degree Days 0 0  
Month to date heating degree days 0 0  
Since 1 July heating degree days 28 73  
Cooling Degree Days 15 16  
Month to date cooling degree days 274 262  
Year to date cooling degree days 1478 1216  
Growing Degree Days 28 (Base 50)    
Moisture  
Dew Point 71 °F    
Average Humidity 74    
Maximum Humidity 82    
Minimum Humidity 65    
Precipitation  
Precipitation 0.00 in 0.10 in 1.65 in (1971)
Month to date precipitation 2.74 1.35  
Year to date precipitation 15.06 8.98  
Snow  
Snow 0.00 in - - ()
Month to date snowfall 0.0  
Since 1 July snowfall 0.0  
Snow Depth 0.00 in    
Sea Level Pressure  
Sea Level Pressure 29.93 in    
Wind  
Wind Speed 4 mph (SSE)    
Max Wind Speed 9 mph    
Max Gust Speed 15 mph    
Visibility 10 miles    
Events      
T = Trace of Precipitation, MM = Missing Value Source: NWS Daily Summary

Daily Weather History Graph

Daily Weather History Graph

Search for Another Location

Airport or City:

Trip Planner

Search our weather history database for the weather conditions in past years. The results will help you decide how hot, cold, wet, or windy it might be!

Date:

Astronomy

May. 18, 2012 Rise Set
Actual Time 6:41 AM EDT 8:05 PM EDT
Civil Twilight 6:17 AM EDT 8:30 PM EDT
Nautical Twilight 5:47 AM EDT 8:59 PM EDT
Astronomical Twilight 5:17 AM EDT 9:30 PM EDT
Moon 4:59 AM EDT (5/18) 6:19 PM EDT (5/18)
Length of Visible Light 14h 13m
Length of Day
13h 23m
Waning Crescent, 5% of the Moon is Illuminated
May 18
Waning Crescent
May 20
New
May 28
First Quarter
Jun 4
Full
Jun 11
Last Quarter

Hourly Weather History & Observations

Time (EDT) Temp. Heat Index Dew Point Humidity Pressure Visibility Wind Dir Wind Speed Gust Speed Precip Events Conditions
12:53 AM 78.1 °F - 66.9 °F 68% 29.92 in 10.0 mi South 3.5 mph - N/A   Partly Cloudy
1:53 AM 78.1 °F - 66.0 °F 66% 29.91 in 10.0 mi SW 5.8 mph - N/A   Mostly Cloudy
2:53 AM 79.0 °F - 68.0 °F 69% 29.90 in 10.0 mi SSW 6.9 mph - N/A   Overcast
3:53 AM 79.0 °F - 68.0 °F 69% 29.90 in 10.0 mi SSW 8.1 mph - N/A   Overcast
4:53 AM 79.0 °F - 69.1 °F 72% 29.91 in 10.0 mi SW 6.9 mph - N/A   Scattered Clouds
5:53 AM 75.9 °F - 70.0 °F 82% 29.91 in 10.0 mi Calm Calm - N/A   Overcast
6:53 AM 75.0 °F - 70.0 °F 84% 29.92 in 10.0 mi Calm Calm - N/A   Scattered Clouds
7:53 AM 77.0 °F - 72.0 °F 84% 29.94 in 10.0 mi Calm Calm - N/A   Overcast
8:53 AM 80.1 °F 83.2 °F 70.0 °F 71% 29.95 in 10.0 mi Calm Calm - N/A   Overcast
9:53 AM 82.0 °F 85.5 °F 69.1 °F 65% 29.96 in 10.0 mi NNW 6.9 mph - N/A   Mostly Cloudy
10:53 AM 82.9 °F 87.0 °F 70.0 °F 65% 29.97 in 10.0 mi Variable 4.6 mph - N/A   Clear
11:53 AM 82.0 °F 86.3 °F 71.1 °F 69% 29.97 in 10.0 mi SSE 5.8 mph - N/A   Mostly Cloudy
12:01 PM 82.4 °F 87.2 °F 71.6 °F 70% 29.97 in 10.0 mi ESE 5.8 mph - N/A   Scattered Clouds
12:53 PM 84.0 °F 89.6 °F 72.0 °F 67% 29.96 in 10.0 mi ESE 8.1 mph - N/A   Clear
1:53 PM 84.0 °F 90.2 °F 73.0 °F 69% 29.95 in 10.0 mi ESE 6.9 mph - N/A   Clear
2:53 PM 82.9 °F 88.0 °F 72.0 °F 69% 29.93 in 10.0 mi SE 8.1 mph - N/A   Clear
3:53 PM 82.9 °F 88.0 °F 72.0 °F 69% 29.92 in 10.0 mi SSE 6.9 mph - N/A   Clear
4:53 PM 82.0 °F 86.7 °F 72.0 °F 71% 29.91 in 10.0 mi SSE 6.9 mph - N/A   Clear
5:53 PM 82.0 °F 86.7 °F 72.0 °F 71% 29.90 in 10.0 mi SE 6.9 mph - N/A   Clear
6:53 PM 81.0 °F 85.8 °F 73.0 °F 77% 29.91 in 10.0 mi SSE 5.8 mph - N/A   Clear
7:53 PM 81.0 °F 85.8 °F 73.0 °F 77% 29.92 in 10.0 mi SSE 4.6 mph - N/A   Partly Cloudy
8:53 PM 80.1 °F 83.8 °F 72.0 °F 76% 29.92 in 10.0 mi Calm Calm - N/A   Partly Cloudy
9:53 PM 80.1 °F 83.8 °F 72.0 °F 76% 29.93 in 10.0 mi Calm Calm - N/A   Partly Cloudy
10:53 PM 79.0 °F - 72.0 °F 79% 29.94 in 10.0 mi East 3.5 mph - N/A   Clear
11:53 PM 80.1 °F 83.6 °F 71.1 °F 74% 29.94 in 10.0 mi Calm Calm - N/A   Partly Cloudy